Location: Chiroubles
(46.1812°N, 4.6660°E)
Time: 18:14:34
(UTC+00:00)

Cosmos 1515 - Pass Details

Date: 15 August 2020
Orbit: 505 x 517 km, 82.5° (Epoch: 23 September)

Event Time Altitude Azimuth Distance (km) Brightness Sun altitude
Rises 20:52:13 0° 349° (N) 2,644 8.2 -18.6°
Reaches altitude 10° 20:54:22 10° 348° (NNW) 1,750 7.2 -18.8°
Maximum altitude 20:58:12 75° 263° (W) 536 3.7 -19.3°
Enters shadow 20:59:18 44° 189° (S) 719 4.1 -19.4°
